Weather History for KCVX - October, 2012

Change the Weather History Date:

Friday, October 5, 2012

  Actual Average Record
Temperature  
Mean Temperature 52 °F -  
Max Temperature 57 °F 62 °F 82 °F (2005)
Min Temperature 46 °F 43 °F 24 °F (2001)
Degree Days  
Heating Degree Days 13    
Growing Degree Days 2 (Base 50)    
Moisture  
Dew Point 37 °F    
Average Humidity 61    
Maximum Humidity 67    
Minimum Humidity 51    
Precipitation  
Precipitation 0.00 in - - ()
Sea Level Pressure  
Sea Level Pressure 29.94 in    
Wind  
Wind Speed 18 mph (WSW)    
Max Wind Speed 25 mph    
Max Gust Speed 33 mph    
Visibility 10 miles    
Events      
Averages and records for this station are not official NWS values.
T = Trace of Precipitation, MM = Missing Value Source: NWS Daily Summary

Daily Weather History Graph

Daily Weather History Graph

Search for Another Location

Airport or City:

Trip Planner

Search our weather history database for the weather conditions in past years. The results will help you decide how hot, cold, wet, or windy it might be!

Date:

Astronomy

Oct. 05, 2012 Rise Set
Actual Time 7:44 AM EDT 7:13 PM EDT
Civil Twilight 7:15 AM EDT 7:42 PM EDT
Nautical Twilight 6:41 AM EDT 8:16 PM EDT
Astronomical Twilight 6:06 AM EDT 8:50 PM EDT
Moon 10:22 PM EDT (10/5) 1:05 PM EDT (10/5)
Length of Visible Light 12h 27m
Length of Day
11h 28m
Waning Gibbous, 74% of the Moon is Illuminated
Oct 5
Waning Gibbous
Oct 8
Last Quarter
Oct 15
New
Oct 21
First Quarter
Oct 29
Full

Hourly Weather History & Observations

Time (EDT) Temp. Dew Point Humidity Pressure Visibility Wind Dir Wind Speed Gust Speed Precip Events Conditions
12:14 AM 57.2 °F 42.8 °F 59% 29.92 in 10.0 mi West 20.7 mph 26.5 mph N/A   Clear
12:34 AM 55.9 °F 42.6 °F 61% 29.93 in 10.0 mi West 17.3 mph 33.4 mph N/A   Clear
12:54 AM 54.9 °F 41.4 °F 60% 29.94 in 10.0 mi West 21.9 mph 29.9 mph N/A   Clear
1:14 AM 54.3 °F 40.5 °F 59% 29.95 in 10.0 mi West 15.0 mph 26.5 mph N/A   Clear
1:34 AM 53.6 °F 39.9 °F 60% 29.95 in 10.0 mi WSW 15.0 mph 25.3 mph N/A   Scattered Clouds
1:54 AM 53.6 °F 39.2 °F 58% 29.95 in 10.0 mi West 16.1 mph 20.7 mph N/A   Mostly Cloudy
2:14 AM 52.9 °F 38.8 °F 59% 29.96 in 10.0 mi West 15.0 mph 27.6 mph N/A   Overcast
2:34 AM 52.9 °F 39.7 °F 61% 29.97 in 10.0 mi West 17.3 mph 25.3 mph N/A   Overcast
2:54 AM 52.7 °F 39.7 °F 61% 29.97 in 10.0 mi West 15.0 mph 26.5 mph N/A   Overcast
3:14 AM 51.8 °F 39.4 °F 63% 29.96 in 10.0 mi WSW 16.1 mph 25.3 mph N/A   Overcast
3:34 AM 51.3 °F 39.2 °F 63% 29.96 in 10.0 mi West 17.3 mph 25.3 mph N/A   Mostly Cloudy
3:54 AM 50.9 °F 39.0 °F 64% 29.95 in 10.0 mi West 17.3 mph 24.2 mph N/A   Mostly Cloudy
4:14 AM 50.2 °F 38.1 °F 63% 29.95 in 10.0 mi WSW 18.4 mph 23.0 mph N/A   Overcast
4:35 AM 50.2 °F 39.0 °F 66% 29.95 in 10.0 mi West 18.4 mph 24.2 mph N/A   Mostly Cloudy
4:54 AM 50.0 °F 38.5 °F 65% 29.95 in 10.0 mi WSW 18.4 mph 24.2 mph N/A   Overcast
5:14 AM 49.6 °F 38.3 °F 65% 29.96 in 10.0 mi WSW 17.3 mph 29.9 mph N/A   Overcast
5:35 AM 49.5 °F 38.3 °F 65% 29.97 in 10.0 mi WSW 13.8 mph 20.7 mph N/A   Overcast
5:54 AM 49.3 °F 38.1 °F 65% 29.96 in 10.0 mi WSW 12.7 mph 23.0 mph N/A   Overcast
6:14 AM 49.1 °F 37.2 °F 64% 29.95 in 10.0 mi WSW 18.4 mph 28.8 mph N/A   Overcast
6:34 AM 49.1 °F 37.6 °F 64% 29.95 in 10.0 mi WSW 19.6 mph 25.3 mph N/A   Overcast
6:54 AM 49.1 °F 37.9 °F 65% 29.96 in 10.0 mi West 21.9 mph 28.8 mph N/A   Overcast
7:14 AM 48.6 °F 37.6 °F 66% 29.96 in 10.0 mi West 13.8 mph 27.6 mph N/A   Overcast
7:34 AM 48.4 °F 37.6 °F 66% 29.96 in 10.0 mi West 19.6 mph 29.9 mph N/A   Overcast
7:54 AM 48.2 °F 37.6 °F 67% 29.96 in 10.0 mi West 18.4 mph 27.6 mph N/A   Overcast
8:14 AM 48.2 °F 36.9 °F 65% 29.96 in 10.0 mi West 21.9 mph 27.6 mph N/A   Overcast
8:34 AM 47.8 °F 36.7 °F 65% 29.97 in 10.0 mi West 21.9 mph 25.3 mph N/A   Overcast
8:54 AM 47.5 °F 36.7 °F 66% 29.97 in 10.0 mi West 18.4 mph 32.2 mph N/A   Overcast
9:14 AM 47.5 °F 36.7 °F 66% 29.97 in 10.0 mi West 21.9 mph 27.6 mph N/A   Overcast
9:34 AM 47.3 °F 36.0 °F 65% 29.97 in 10.0 mi WSW 18.4 mph 27.6 mph N/A   Overcast
9:54 AM 47.5 °F 36.1 °F 65% 29.97 in 10.0 mi West 16.1 mph 26.5 mph N/A   Overcast
10:14 AM 47.3 °F 36.0 °F 65% 29.97 in 10.0 mi WSW 16.1 mph 25.3 mph N/A   Overcast
10:34 AM 47.8 °F 36.7 °F 65% 29.98 in 10.0 mi WSW 17.3 mph 23.0 mph N/A   Overcast
10:54 AM 48.2 °F 37.2 °F 66% 29.97 in 10.0 mi WSW 17.3 mph 24.2 mph N/A   Overcast
11:14 AM 48.6 °F 36.3 °F 63% 29.97 in 10.0 mi WSW 17.3 mph 23.0 mph N/A   Overcast
11:34 AM 48.4 °F 36.5 °F 64% 29.97 in 10.0 mi WSW 16.1 mph 25.3 mph N/A   Overcast
11:55 AM 49.6 °F 36.5 °F 61% 29.96 in 10.0 mi WSW 20.7 mph 25.3 mph N/A   Mostly Cloudy
12:14 PM 50.5 °F 37.4 °F 61% 29.96 in 10.0 mi West 19.6 mph 28.8 mph N/A   Mostly Cloudy
12:34 PM 51.4 °F 36.9 °F 58% 29.97 in 10.0 mi SW 18.4 mph 26.5 mph N/A   Overcast
12:55 PM 49.8 °F 37.2 °F 62% 29.96 in 10.0 mi WSW 19.6 mph 26.5 mph N/A   Overcast
1:14 PM 51.1 °F 37.4 °F 60% 29.96 in 10.0 mi WSW 18.4 mph 26.5 mph N/A   Mostly Cloudy
1:34 PM 51.1 °F 37.8 °F 60% 29.96 in 10.0 mi WSW 13.8 mph 25.3 mph N/A   Mostly Cloudy
1:54 PM 51.3 °F 37.2 °F 59% 29.95 in 10.0 mi WSW 16.1 mph 33.4 mph N/A   Overcast
2:34 PM 51.4 °F 37.4 °F 59% 29.94 in 10.0 mi WSW 19.6 mph 26.5 mph N/A   Overcast
2:54 PM 50.9 °F 37.6 °F 60% 29.92 in 10.0 mi WSW 19.6 mph 25.3 mph N/A   Mostly Cloudy
3:15 PM 50.5 °F 37.9 °F 62% 29.92 in 10.0 mi WSW 18.4 mph 24.2 mph N/A   Mostly Cloudy
3:34 PM 50.2 °F 37.8 °F 62% 29.92 in 10.0 mi WSW 15.0 mph 26.5 mph N/A   Overcast
3:54 PM 50.5 °F 37.6 °F 61% 29.92 in 10.0 mi WSW 15.0 mph 20.7 mph N/A   Overcast
4:15 PM 50.5 °F 37.4 °F 61% 29.92 in 10.0 mi WSW 13.8 mph 26.5 mph N/A   Overcast
4:34 PM 50.5 °F 36.5 °F 59% 29.92 in 10.0 mi WSW 15.0 mph 28.8 mph N/A   Mostly Cloudy
4:54 PM 50.2 °F 36.9 °F 60% 29.91 in 10.0 mi WSW 17.3 mph 25.3 mph N/A   Overcast
5:14 PM 50.2 °F 36.1 °F 59% 29.91 in 10.0 mi SW 11.5 mph 20.7 mph N/A   Overcast
5:34 PM 50.9 °F 35.6 °F 56% 29.91 in 10.0 mi WSW 15.0 mph 23.0 mph N/A   Overcast
5:54 PM 50.9 °F 36.0 °F 57% 29.90 in 10.0 mi West 15.0 mph 25.3 mph N/A   Overcast
6:14 PM 50.9 °F 34.9 °F 54% 29.91 in 10.0 mi West 20.7 mph 24.2 mph N/A   Overcast
6:34 PM 51.1 °F 34.7 °F 54% 29.91 in 10.0 mi WSW 16.1 mph 26.5 mph N/A   Mostly Cloudy
7:14 PM 50.9 °F 34.2 °F 53% 29.90 in 10.0 mi WSW 18.4 mph 25.3 mph N/A   Overcast
7:34 PM 50.9 °F 33.3 °F 51% 29.90 in 10.0 mi West 18.4 mph 28.8 mph N/A   Overcast
7:54 PM 50.9 °F 33.4 °F 51% 29.90 in 10.0 mi WSW 17.3 mph 26.5 mph N/A   Overcast
8:14 PM 51.3 °F 34.0 °F 52% 29.89 in 10.0 mi WSW 19.6 mph 25.3 mph N/A   Overcast
8:34 PM 50.7 °F 35.6 °F 56% 29.89 in 10.0 mi WNW 13.8 mph 25.3 mph N/A   Overcast
8:54 PM 50.0 °F 35.4 °F 57% 29.90 in 10.0 mi WNW 17.3 mph 23.0 mph N/A   Overcast
9:14 PM 49.1 °F 34.9 °F 58% 29.91 in 10.0 mi West 21.9 mph 26.5 mph N/A   Overcast
9:34 PM 48.6 °F 34.5 °F 58% 29.91 in 10.0 mi WNW 20.7 mph 28.8 mph N/A   Overcast
9:54 PM 48.2 °F 33.4 °F 57% 29.91 in 10.0 mi West 25.3 mph 32.2 mph N/A   Overcast
10:14 PM 47.7 °F 32.5 °F 56% 29.91 in 10.0 mi WNW 20.7 mph 27.6 mph N/A   Overcast
10:34 PM 47.5 °F 32.5 °F 56% 29.90 in 10.0 mi WNW 19.6 mph 29.9 mph N/A   Overcast
10:54 PM 47.5 °F 32.4 °F 56% 29.90 in 10.0 mi West 24.2 mph 29.9 mph N/A   Overcast
11:34 PM 47.3 °F 32.0 °F 55% 29.89 in 10.0 mi West 23.0 mph 28.8 mph N/A   Overcast
11:54 PM 46.9 °F 29.7 °F 51% 29.89 in 10.0 mi West 19.6 mph 26.5 mph N/A   Overcast